ARG1975 SGAS-SULS

Flight info

Callsign ARG1975
Flight time 1h 31m
Altitude 37000
Route KONTO UM402 CRR A305 LDS
Aircraft B738/M-SDE2E3FGHIRWXY/LB1

Departure

Time 2026-04-25 22:41
Airport Silvio Pettirossi International Airport (SGAS)

Arrival

Time 2026-04-26 00:12
Airport Capitan Corbeta CA Curbelo International Airport (SULS)
Time Latitude Longitude Altitude Speed Heading
2026-04-25 22:36 -25.22826 -57.51410 276 ft 14 kts 12°
2026-04-25 22:37 -25.22734 -57.51388 276 ft 13 kts 12°
2026-04-25 22:37 -25.22646 -57.51367 276 ft 13 kts 12°
2026-04-25 22:37 -25.22563 -57.51377 275 ft 12 kts 318°
2026-04-25 22:37 -25.22541 -57.51434 273 ft 1 kts 282°
2026-04-25 22:38 -25.22541 -57.51435 273 ft 0 kts 282°
2026-04-25 22:39 -25.22540 -57.51442 272 ft 3 kts 282°
2026-04-25 22:39 -25.22531 -57.51485 272 ft 9 kts 281°
2026-04-25 22:39 -25.22554 -57.51560 267 ft 11 kts 210°
2026-04-25 22:39 -25.22592 -57.51572 267 ft 0 kts 192°
2026-04-25 22:40 -25.22856 -57.51636 271 ft 75 kts 191°
2026-04-25 22:40 -25.23586 -57.51812 273 ft 137 kts 192°
2026-04-25 22:40 -25.24667 -57.52077 465 ft 170 kts 193°
2026-04-25 22:41 -25.25726 -57.52334 1420 ft 147 kts 192°
2026-04-25 22:41 -25.26709 -57.52580 2118 ft 147 kts 194°
2026-04-25 22:41 -25.27752 -57.52877 2654 ft 157 kts 192°
2026-04-25 22:41 -25.28821 -57.53105 3288 ft 160 kts 190°
2026-04-25 22:42 -25.29947 -57.53328 3802 ft 176 kts 192°
2026-04-25 22:42 -25.31249 -57.53643 4099 ft 206 kts 193°
2026-04-25 22:42 -25.32730 -57.54015 4311 ft 230 kts 194°
2026-04-25 22:42 -25.34369 -57.54426 4522 ft 253 kts 193°
2026-04-25 22:43 -25.36164 -57.54872 4861 ft 272 kts 193°
2026-04-25 22:43 -25.38036 -57.55332 5613 ft 277 kts 194°
2026-04-25 22:43 -25.39922 -57.55794 6478 ft 279 kts 194°
2026-04-25 22:43 -25.41828 -57.56260 7259 ft 283 kts 194°
2026-04-25 22:44 -25.43760 -57.56740 8012 ft 285 kts 196°
2026-04-25 22:44 -25.45720 -57.57233 8705 ft 291 kts 195°
2026-04-25 22:44 -25.47714 -57.57711 9446 ft 294 kts 195°
2026-04-25 22:44 -25.49736 -57.58191 10137 ft 300 kts 195°
2026-04-25 22:45 -25.51847 -57.58706 10387 ft 323 kts 196°
2026-04-25 22:45 -25.54118 -57.59244 10620 ft 343 kts 194°
2026-04-25 22:45 -25.56499 -57.59678 11132 ft 351 kts 192°
2026-04-25 22:45 -25.58932 -57.60068 11807 ft 354 kts 191°
2026-04-25 22:46 -25.61380 -57.60435 12528 ft 356 kts 192°
2026-04-25 22:46 -25.63850 -57.60820 13230 ft 360 kts 192°
2026-04-25 22:46 -25.66340 -57.61221 13878 ft 364 kts 193°
2026-04-25 22:46 -25.68858 -57.61636 14545 ft 368 kts 193°
2026-04-25 22:47 -25.71405 -57.62055 15215 ft 372 kts 193°
2026-04-25 22:47 -25.73976 -57.62478 15866 ft 375 kts 193°
2026-04-25 22:47 -25.76575 -57.62907 16489 ft 380 kts 193°
2026-04-25 22:47 -25.79201 -57.63341 17116 ft 383 kts 193°
2026-04-25 22:48 -25.81849 -57.63780 17720 ft 388 kts 193°
2026-04-25 22:48 -25.84578 -57.63958 18278 ft 399 kts 182°
2026-04-25 22:48 -25.87314 -57.63519 18857 ft 408 kts 171°
2026-04-25 22:48 -25.90054 -57.62572 19471 ft 414 kts 166°
2026-04-25 22:49 -25.92791 -57.61537 20075 ft 417 kts 166°
2026-04-25 22:49 -25.95546 -57.60483 20584 ft 421 kts 166°
2026-04-25 22:49 -25.98337 -57.59419 21064 ft 425 kts 167°
2026-04-25 22:49 -26.01139 -57.58359 21579 ft 427 kts 167°
2026-04-25 22:50 -26.03970 -57.57294 22066 ft 431 kts 167°
2026-04-25 22:50 -26.06817 -57.56230 22559 ft 433 kts 168°
2026-04-25 22:50 -26.09696 -57.55158 23007 ft 436 kts 168°
2026-04-25 22:50 -26.12582 -57.54085 23448 ft 439 kts 168°
2026-04-25 22:51 -26.15487 -57.53006 23860 ft 442 kts 168°
2026-04-25 22:51 -26.18414 -57.51918 24269 ft 444 kts 168°
2026-04-25 22:51 -26.21357 -57.50824 24666 ft 447 kts 168°
2026-04-25 22:51 -26.24318 -57.49722 25027 ft 450 kts 169°
2026-04-25 22:52 -26.27262 -57.48624 25394 ft 453 kts 169°
2026-04-25 22:52 -26.30262 -57.47503 25767 ft 455 kts 169°
2026-04-25 22:52 -26.33276 -57.46379 26134 ft 458 kts 169°
2026-04-25 22:52 -26.35322 -57.45616 26353 ft 460 kts 169°
2026-04-25 22:53 -26.39363 -57.44107 26799 ft 464 kts 169°
2026-04-25 22:53 -26.42434 -57.42960 27100 ft 468 kts 169°
2026-04-25 22:53 -26.45532 -57.41801 27437 ft 470 kts 169°
2026-04-25 22:53 -26.48638 -57.40638 27767 ft 472 kts 169°
2026-04-25 22:54 -26.51766 -57.39466 28101 ft 475 kts 169°
2026-04-25 22:54 -26.54902 -57.38291 28412 ft 477 kts 169°
2026-04-25 22:54 -26.58062 -57.37106 28715 ft 480 kts 169°
2026-04-25 22:54 -26.61235 -57.35915 29006 ft 482 kts 169°
2026-04-25 22:55 -26.64425 -57.34717 29253 ft 485 kts 169°
2026-04-25 22:55 -26.67633 -57.33512 29527 ft 488 kts 170°
2026-04-25 22:55 -26.70860 -57.32298 29813 ft 490 kts 170°
2026-04-25 22:55 -26.74099 -57.31082 30090 ft 491 kts 171°
2026-04-25 22:56 -26.77337 -57.30096 30339 ft 484 kts 179°
2026-04-25 22:56 -26.80652 -57.29556 30616 ft 480 kts 182°
2026-04-25 22:56 -26.83960 -57.29112 30931 ft 479 kts 183°
2026-04-25 22:56 -26.87281 -57.28689 31239 ft 480 kts 183°
2026-04-25 22:57 -26.90590 -57.28259 31644 ft 478 kts 183°
2026-04-25 22:57 -26.93885 -57.27814 32056 ft 476 kts 182°
2026-04-25 22:57 -26.97169 -57.27357 32410 ft 476 kts 182°
2026-04-25 22:57 -27.00457 -57.26891 32739 ft 476 kts 182°
2026-04-25 22:58 -27.03736 -57.26421 33094 ft 475 kts 182°
2026-04-25 22:58 -27.07003 -57.25949 33526 ft 472 kts 183°
2026-04-25 22:58 -27.10252 -57.25478 33926 ft 469 kts 183°
2026-04-25 22:58 -27.13488 -57.25012 34237 ft 469 kts 183°
2026-04-25 22:59 -27.16730 -57.24547 34523 ft 470 kts 183°
2026-04-25 22:59 -27.19968 -57.24081 34934 ft 467 kts 183°
2026-04-25 22:59 -27.23180 -57.23618 35316 ft 464 kts 184°
2026-04-25 22:59 -27.26389 -57.23155 35652 ft 463 kts 184°
2026-04-25 23:00 -27.29577 -57.22697 35941 ft 462 kts 184°
2026-04-25 23:00 -27.32729 -57.22244 36207 ft 462 kts 184°
2026-04-25 23:00 -27.35913 -57.21785 36531 ft 460 kts 184°
2026-04-25 23:00 -27.39078 -57.21327 36835 ft 459 kts 184°
2026-04-25 23:01 -27.45437 -57.20410 36932 ft 459 kts 184°
2026-04-25 23:01 -27.51693 -57.19484 36919 ft 448 kts 184°
2026-04-25 23:02 -27.57833 -57.18578 36929 ft 447 kts 184°
2026-04-25 23:02 -27.63999 -57.17672 36930 ft 446 kts 184°
2026-04-25 23:03 -27.70149 -57.16769 36919 ft 445 kts 184°
2026-04-25 23:03 -27.76294 -57.15861 36928 ft 445 kts 185°
2026-04-25 23:04 -27.81415 -57.15104 36931 ft 445 kts 184°
2026-04-25 23:04 -27.88564 -57.14046 36923 ft 446 kts 184°
2026-04-25 23:05 -27.94740 -57.13131 36933 ft 447 kts 185°
2026-04-25 23:05 -28.00936 -57.12210 36929 ft 449 kts 185°
2026-04-25 23:06 -28.07132 -57.11289 36930 ft 449 kts 185°
2026-04-25 23:06 -28.13294 -57.10370 36929 ft 450 kts 186°
2026-04-25 23:07 -28.19499 -57.09446 36928 ft 450 kts 186°
2026-04-25 23:07 -28.25720 -57.08519 36929 ft 451 kts 186°
2026-04-25 23:08 -28.31933 -57.07588 36917 ft 450 kts 186°
2026-04-25 23:08 -28.38150 -57.06659 36917 ft 450 kts 186°
2026-04-25 23:09 -28.44361 -57.05731 36936 ft 449 kts 186°
2026-04-25 23:09 -28.50558 -57.04803 36936 ft 449 kts 186°
2026-04-25 23:10 -28.56748 -57.03874 36935 ft 449 kts 186°
2026-04-25 23:10 -28.62942 -57.02942 36934 ft 448 kts 186°
2026-04-25 23:11 -28.69120 -57.02010 36935 ft 448 kts 186°
2026-04-25 23:11 -28.75293 -57.01077 36935 ft 447 kts 186°
2026-04-25 23:12 -28.81462 -57.00143 36935 ft 447 kts 186°
2026-04-25 23:12 -28.87625 -56.99211 36935 ft 447 kts 186°
2026-04-25 23:13 -28.93745 -56.98283 36934 ft 446 kts 186°
2026-04-25 23:13 -28.99903 -56.97349 36936 ft 446 kts 187°
2026-04-25 23:14 -29.06066 -56.96412 36935 ft 446 kts 187°
2026-04-25 23:14 -29.12220 -56.95476 36947 ft 446 kts 187°
2026-04-25 23:15 -29.17341 -56.94689 36944 ft 447 kts 187°
2026-04-25 23:15 -29.23511 -56.93735 36945 ft 447 kts 187°
2026-04-25 23:16 -29.29678 -56.92781 36946 ft 447 kts 187°
2026-04-25 23:16 -29.35850 -56.91825 36939 ft 448 kts 187°
2026-04-25 23:17 -29.41992 -56.90871 36947 ft 448 kts 187°
2026-04-25 23:17 -29.48179 -56.89911 36942 ft 448 kts 187°
2026-04-25 23:18 -29.54368 -56.88949 36944 ft 448 kts 187°
2026-04-25 23:18 -29.60556 -56.87967 36942 ft 449 kts 187°
2026-04-25 23:19 -29.66732 -56.86977 36944 ft 448 kts 187°
2026-04-25 23:19 -29.72915 -56.85987 36938 ft 448 kts 187°
2026-04-25 23:20 -29.79052 -56.85002 36946 ft 448 kts 187°
2026-04-25 23:20 -29.85227 -56.84012 36944 ft 448 kts 187°
2026-04-25 23:21 -29.91393 -56.83022 36948 ft 447 kts 187°
2026-04-25 23:21 -29.97551 -56.82033 36940 ft 447 kts 187°
2026-04-25 23:22 -30.03711 -56.81042 36940 ft 447 kts 188°
2026-04-25 23:23 -30.12961 -56.79558 36947 ft 447 kts 188°
2026-04-25 23:23 -30.19124 -56.78606 36940 ft 447 kts 188°
2026-04-25 23:24 -30.25282 -56.77662 36948 ft 446 kts 188°
2026-04-25 23:24 -30.31407 -56.76715 36942 ft 447 kts 188°
2026-04-25 23:25 -30.37574 -56.75761 36948 ft 447 kts 188°
2026-04-25 23:25 -30.43746 -56.74803 36944 ft 448 kts 188°
2026-04-25 23:26 -30.49921 -56.73843 36950 ft 448 kts 188°
2026-04-25 23:26 -30.56117 -56.72880 36943 ft 449 kts 188°
2026-04-25 23:27 -30.62316 -56.71912 36937 ft 450 kts 188°
2026-04-25 23:27 -30.68516 -56.70944 36948 ft 450 kts 188°
2026-04-25 23:28 -30.74726 -56.69967 36946 ft 450 kts 187°
2026-04-25 23:28 -30.80903 -56.68958 36955 ft 451 kts 187°
2026-04-25 23:29 -30.87116 -56.67943 36955 ft 451 kts 187°
2026-04-25 23:29 -30.93331 -56.66949 36956 ft 450 kts 188°
2026-04-25 23:30 -30.99562 -56.65968 36956 ft 450 kts 188°
2026-04-25 23:30 -31.05777 -56.64987 36955 ft 451 kts 188°
2026-04-25 23:31 -31.11991 -56.64001 36949 ft 450 kts 187°
2026-04-25 23:31 -31.18198 -56.63014 36957 ft 450 kts 187°
2026-04-25 23:32 -31.24415 -56.62028 36954 ft 451 kts 187°
2026-04-25 23:32 -31.30594 -56.61042 36954 ft 451 kts 187°
2026-04-25 23:33 -31.36809 -56.60051 36958 ft 451 kts 187°
2026-04-25 23:33 -31.43029 -56.59059 36950 ft 451 kts 187°
2026-04-25 23:34 -31.49253 -56.58062 36957 ft 452 kts 187°
2026-04-25 23:34 -31.55486 -56.57062 36950 ft 452 kts 187°
2026-04-25 23:35 -31.61716 -56.56062 36954 ft 452 kts 187°
2026-04-25 23:35 -31.67940 -56.55064 36957 ft 452 kts 187°
2026-04-25 23:36 -31.74175 -56.54060 36955 ft 452 kts 187°
2026-04-25 23:36 -31.80407 -56.53067 36953 ft 452 kts 187°
2026-04-25 23:37 -31.86638 -56.52075 36954 ft 452 kts 187°
2026-04-25 23:37 -31.92826 -56.51086 36953 ft 452 kts 187°
2026-04-25 23:38 -31.99056 -56.50099 36949 ft 452 kts 187°
2026-04-25 23:38 -32.05286 -56.49096 36952 ft 452 kts 187°
2026-04-25 23:39 -32.11511 -56.48097 36956 ft 452 kts 187°
2026-04-25 23:39 -32.17745 -56.47092 36956 ft 452 kts 187°
2026-04-25 23:40 -32.23990 -56.46067 36954 ft 453 kts 187°
2026-04-25 23:40 -32.30223 -56.45043 36948 ft 453 kts 187°
2026-04-25 23:41 -32.36470 -56.44016 36952 ft 453 kts 187°
2026-04-25 23:41 -32.42703 -56.42991 36952 ft 453 kts 187°
2026-04-25 23:42 -32.48947 -56.41963 36956 ft 453 kts 186°
2026-04-25 23:42 -32.55197 -56.40933 36953 ft 453 kts 186°
2026-04-25 23:43 -32.61401 -56.39908 36948 ft 453 kts 186°
2026-04-25 23:43 -32.67647 -56.38876 36940 ft 453 kts 186°
2026-04-25 23:44 -32.73890 -56.37840 36946 ft 452 kts 186°
2026-04-25 23:44 -32.80124 -56.36805 36941 ft 452 kts 186°
2026-04-25 23:45 -32.86359 -56.35772 36940 ft 453 kts 186°
2026-04-25 23:45 -32.92613 -56.34732 36948 ft 453 kts 186°
2026-04-25 23:46 -32.98863 -56.33691 36946 ft 454 kts 186°
2026-04-25 23:46 -33.05133 -56.32659 36771 ft 458 kts 186°
2026-04-25 23:46 -33.08306 -56.32142 36267 ft 459 kts 186°
2026-04-25 23:47 -33.11457 -56.31620 35718 ft 457 kts 186°
2026-04-25 23:47 -33.14615 -56.31096 35106 ft 458 kts 186°
2026-04-25 23:47 -33.17785 -56.30571 34610 ft 456 kts 186°
2026-04-25 23:47 -33.20872 -56.30056 34193 ft 453 kts 186°
2026-04-25 23:48 -33.24017 -56.29532 33749 ft 449 kts 185°
2026-04-25 23:48 -33.27105 -56.29019 33327 ft 446 kts 185°
2026-04-25 23:48 -33.30127 -56.28517 32915 ft 442 kts 185°
2026-04-25 23:48 -33.33168 -56.28012 32495 ft 440 kts 185°
2026-04-25 23:49 -33.36190 -56.27512 32072 ft 437 kts 185°
2026-04-25 23:49 -33.39190 -56.27016 31649 ft 434 kts 185°
2026-04-25 23:49 -33.42179 -56.26520 31230 ft 432 kts 185°
2026-04-25 23:49 -33.45144 -56.26028 30825 ft 429 kts 185°
2026-04-25 23:50 -33.48096 -56.25539 30420 ft 427 kts 184°
2026-04-25 23:50 -33.51029 -56.25052 30005 ft 425 kts 184°
2026-04-25 23:50 -33.53953 -56.24565 29597 ft 422 kts 184°
2026-04-25 23:50 -33.56857 -56.24080 29181 ft 420 kts 184°
2026-04-25 23:51 -33.59741 -56.23599 28755 ft 417 kts 184°
2026-04-25 23:51 -33.62611 -56.23121 28338 ft 415 kts 184°
2026-04-25 23:51 -33.65463 -56.22645 27927 ft 413 kts 183°
2026-04-25 23:51 -33.68302 -56.22172 27504 ft 411 kts 183°
2026-04-25 23:52 -33.71126 -56.21699 27089 ft 408 kts 183°
2026-04-25 23:52 -33.73935 -56.21229 26671 ft 406 kts 183°
2026-04-25 23:52 -33.76725 -56.20710 26256 ft 410 kts 177°
2026-04-25 23:52 -33.79438 -56.19630 25838 ft 423 kts 164°
2026-04-25 23:53 -33.82021 -56.17846 25439 ft 432 kts 150°
2026-04-25 23:53 -33.84362 -56.15559 25047 ft 434 kts 146°
2026-04-25 23:53 -33.86640 -56.13182 24628 ft 433 kts 144°
2026-04-25 23:53 -33.88896 -56.10790 24204 ft 431 kts 144°
2026-04-25 23:54 -33.91138 -56.08413 23794 ft 428 kts 144°
2026-04-25 23:54 -33.93378 -56.06059 23381 ft 426 kts 144°
2026-04-25 23:54 -33.95616 -56.03724 22970 ft 424 kts 144°
2026-04-25 23:54 -33.97838 -56.01412 22566 ft 421 kts 144°
2026-04-25 23:55 -34.00053 -55.99116 22159 ft 419 kts 144°
2026-04-25 23:55 -34.02256 -55.96833 21754 ft 415 kts 144°
2026-04-25 23:55 -34.04440 -55.94570 21351 ft 413 kts 144°
2026-04-25 23:55 -34.06616 -55.92321 20954 ft 410 kts 144°
2026-04-25 23:56 -34.08772 -55.90089 20561 ft 407 kts 144°
2026-04-25 23:56 -34.10955 -55.87966 20302 ft 396 kts 151°
2026-04-25 23:56 -34.13314 -55.86410 20114 ft 380 kts 161°
2026-04-25 23:56 -34.15676 -55.85083 19772 ft 377 kts 161°
2026-04-25 23:57 -34.18053 -55.83757 19333 ft 376 kts 161°
2026-04-25 23:57 -34.20405 -55.82437 18907 ft 368 kts 160°
2026-04-25 23:57 -34.22712 -55.81133 18319 ft 365 kts 160°
2026-04-25 23:57 -34.25003 -55.79831 17710 ft 361 kts 160°
2026-04-25 23:58 -34.27260 -55.78543 17157 ft 357 kts 159°
2026-04-25 23:58 -34.29492 -55.77266 16562 ft 354 kts 159°
2026-04-25 23:58 -34.31703 -55.75998 15991 ft 350 kts 159°
2026-04-25 23:58 -34.33893 -55.74741 15426 ft 346 kts 159°
2026-04-25 23:59 -34.36055 -55.73499 14851 ft 342 kts 159°
2026-04-25 23:59 -34.38196 -55.72268 14306 ft 339 kts 159°
2026-04-25 23:59 -34.40314 -55.71050 13752 ft 335 kts 159°
2026-04-25 23:59 -34.42407 -55.69843 13203 ft 332 kts 158°
2026-04-26 00:00 -34.44481 -55.68648 12661 ft 328 kts 158°
2026-04-26 00:00 -34.46517 -55.67474 12286 ft 319 kts 158°
2026-04-26 00:00 -34.48474 -55.66343 12036 ft 306 kts 158°
2026-04-26 00:00 -34.50373 -55.65246 11707 ft 298 kts 158°
2026-04-26 00:01 -34.52227 -55.64176 11303 ft 293 kts 158°
2026-04-26 00:01 -34.54067 -55.63114 10852 ft 291 kts 158°
2026-04-26 00:01 -34.55886 -55.62064 10415 ft 288 kts 158°
2026-04-26 00:01 -34.57081 -55.61373 10127 ft 286 kts 157°
2026-04-26 00:02 -34.58870 -55.60340 9693 ft 283 kts 157°
2026-04-26 00:02 -34.60640 -55.59316 9247 ft 281 kts 157°
2026-04-26 00:02 -34.62384 -55.58306 8991 ft 271 kts 156°
2026-04-26 00:02 -34.64033 -55.57349 8941 ft 254 kts 156°
2026-04-26 00:03 -34.65604 -55.56438 8685 ft 248 kts 156°
2026-04-26 00:03 -34.67160 -55.55537 8288 ft 247 kts 156°
2026-04-26 00:03 -34.68764 -55.54610 7452 ft 264 kts 156°
2026-04-26 00:03 -34.70427 -55.53649 6892 ft 268 kts 156°
2026-04-26 00:04 -34.72115 -55.52670 6433 ft 267 kts 156°
2026-04-26 00:04 -34.73787 -55.51698 6024 ft 264 kts 155°
2026-04-26 00:04 -34.75423 -55.50746 5687 ft 258 kts 155°
2026-04-26 00:04 -34.77042 -55.49803 5422 ft 258 kts 155°
2026-04-26 00:05 -34.78661 -55.48860 5144 ft 258 kts 155°
2026-04-26 00:05 -34.80276 -55.47921 4865 ft 257 kts 155°
2026-04-26 00:05 -34.81889 -55.46982 4591 ft 256 kts 155°
2026-04-26 00:05 -34.83478 -55.46057 4322 ft 256 kts 155°
2026-04-26 00:06 -34.85106 -55.45110 4052 ft 255 kts 155°
2026-04-26 00:06 -34.86687 -55.44190 3789 ft 255 kts 155°
2026-04-26 00:06 -34.88298 -55.43249 3518 ft 253 kts 155°
2026-04-26 00:06 -34.89858 -55.42339 3294 ft 250 kts 155°
2026-04-26 00:07 -34.91404 -55.41387 3102 ft 250 kts 147°
2026-04-26 00:07 -34.92529 -55.39786 3019 ft 251 kts 113°
2026-04-26 00:07 -34.92795 -55.37729 3008 ft 243 kts 86°
2026-04-26 00:07 -34.92470 -55.35737 3003 ft 236 kts 72°
2026-04-26 00:08 -34.91952 -55.33884 2989 ft 227 kts 71°
2026-04-26 00:08 -34.91466 -55.32100 2986 ft 218 kts 72°
2026-04-26 00:08 -34.91017 -55.30396 3003 ft 203 kts 73°
2026-04-26 00:08 -34.90600 -55.28809 3001 ft 194 kts 73°
2026-04-26 00:09 -34.90195 -55.27258 2799 ft 189 kts 74°
2026-04-26 00:09 -34.89805 -55.25770 2579 ft 179 kts 73°
2026-04-26 00:09 -34.89441 -55.24387 2371 ft 166 kts 72°
2026-04-26 00:09 -34.89101 -55.23110 2131 ft 152 kts 73°
2026-04-26 00:10 -34.88784 -55.21897 1937 ft 148 kts 73°
2026-04-26 00:10 -34.88471 -55.20702 1750 ft 149 kts 73°
2026-04-26 00:10 -34.88156 -55.19498 1555 ft 149 kts 73°
2026-04-26 00:10 -34.87842 -55.18301 1356 ft 148 kts 73°
2026-04-26 00:11 -34.87533 -55.17106 1155 ft 147 kts 72°
2026-04-26 00:11 -34.87226 -55.15949 961 ft 144 kts 73°
2026-04-26 00:11 -34.86925 -55.14791 749 ft 144 kts 73°
2026-04-26 00:11 -34.86614 -55.13614 503 ft 147 kts 72°
2026-04-26 00:12 -34.86314 -55.12439 305 ft 144 kts 73°
2026-04-26 00:12 -34.86010 -55.11300 114 ft 137 kts 72°
2026-04-26 00:12 -34.85778 -55.10415 98 ft 52 kts 72°
2026-04-26 00:12 -34.85693 -55.10091 98 ft 20 kts 72°
2026-04-26 00:13 -34.85659 -55.09948 101 ft 14 kts 86°
2026-04-26 00:13 -34.85691 -55.09901 100 ft 3 kts 159°
2026-04-26 00:13 -34.85715 -55.09890 99 ft 4 kts 160°
2026-04-26 00:13 -34.85746 -55.09879 100 ft 5 kts 163°
2026-04-26 00:14 -34.85777 -55.09868 99 ft 5 kts 164°
2026-04-26 00:14 -34.85808 -55.09857 99 ft 5 kts 163°
2026-04-26 00:14 -34.85850 -55.09841 99 ft 7 kts 162°
2026-04-26 00:14 -34.85894 -55.09855 99 ft 7 kts 234°
2026-04-26 00:15 -34.85913 -55.09904 99 ft 6 kts 226°
2026-04-26 00:15 -34.85939 -55.09907 99 ft 2 kts 159°
2026-04-26 00:15 -34.85952 -55.09901 99 ft 2 kts 160°
2026-04-26 00:15 -34.85961 -55.09898 99 ft 0 kts 161°